Location: Alpha Ridge Park
(39.3209°N, 76.9128°W)
Time: 04:15:24
(UTC-04:00)

Tiros 1 - All Passes

Search period start: 23 May 2019 00:00
Search period end: 02 June 2019 00:00
Orbit: 630 x 664 km, 48.4° (Epoch: 23 May)

Date Brightness Start Highest point End Pass type
(mag) Time Alt. Az. Time Alt. Az. Time Alt. Az.
23 May - 11:03:31 10° SW 11:08:02 55° SE 11:12:37 10° ENE daylight
23 May - 12:45:59 10° W 12:50:23 40° NNW 12:54:51 10° NE daylight
23 May - 14:29:27 10° WNW 14:33:27 27° N 14:37:29 10° ENE daylight
23 May - 16:12:01 10° NW 16:16:31 42° NNE 16:21:02 10° E daylight
23 May - 17:54:13 10° WNW 17:58:51 54° SW 18:03:31 10° SE daylight
24 May - 09:48:40 10° S 09:52:16 23° SE 09:55:54 10° E daylight
24 May - 11:29:28 10° WSW 11:34:05 73° NNW 11:38:47 10° NE daylight
24 May - 13:12:44 10° WNW 13:16:51 30° N 13:21:00 10° NE daylight
24 May - 14:55:53 10° NW 15:00:01 29° N 15:04:12 10° ENE daylight
24 May - 16:38:04 10° NW 16:42:48 71° NNE 16:47:34 10° ESE daylight
24 May - 18:20:50 10° W 18:24:42 25° SW 18:28:33 10° S daylight
25 May - 10:13:37 10° SW 10:18:05 51° SE 10:22:36 10° ENE daylight
25 May - 11:55:57 10° W 12:00:22 42° NNW 12:04:51 10° NE daylight
25 May - 13:39:26 10° WNW 13:43:25 26° N 13:47:25 10° ENE daylight
25 May - 15:22:02 10° NW 15:26:29 40° NNE 15:30:58 10° E daylight
25 May - 17:04:13 10° WNW 17:08:52 59° SW 17:13:34 10° SE daylight
25 May - 18:49:57 10° WSW 18:50:20 10° SW 18:50:43 10° SW daylight
26 May - 08:58:54 10° S 09:02:20 21° SE 09:05:47 10° E daylight
26 May - 10:39:29 10° WSW 10:44:07 78° NNW 10:48:48 10° ENE daylight
26 May - 12:22:42 10° WNW 12:26:49 30° NNW 12:30:59 10° NE daylight
26 May - 14:05:54 10° NW 14:09:59 29° N 14:14:07 10° ENE daylight
26 May - 15:48:05 10° NW 15:52:48 67° NNE 15:57:33 10° ESE daylight
26 May - 17:30:46 10° WNW 17:34:44 27° SW 17:38:43 10° SSE daylight
27 May - 09:23:43 10° SSW 09:28:07 47° SE 09:32:35 10° ENE daylight
27 May - 11:05:55 10° W 11:10:22 44° NNW 11:14:51 10° NE daylight
27 May - 12:49:25 10° WNW 12:53:23 26° N 12:57:22 10° ENE daylight
27 May - 14:32:04 10° NW 14:36:28 38° NNE 14:40:54 10° E daylight
27 May - 16:14:13 10° WNW 16:18:54 64° SW 16:23:36 10° SE daylight
27 May - 17:58:58 10° WSW 18:00:24 11° SW 18:01:50 10° SSW daylight
28 May - 08:09:10 10° S 08:12:24 19° SE 08:15:39 10° E daylight
28 May - 09:49:30 10° WSW 09:54:08 84° NNW 09:58:48 10° ENE daylight
28 May - 11:32:39 10° WNW 11:36:48 31° NNW 11:40:58 10° NE daylight
28 May - 13:15:54 10° NW 13:19:57 28° N 13:24:03 10° ENE daylight
28 May - 14:58:07 10° NW 15:02:48 62° NNE 15:07:30 10° ESE daylight
28 May - 16:40:42 10° WNW 16:44:47 29° SW 16:48:52 10° SSE daylight
29 May - 08:33:49 10° SSW 08:38:10 43° SE 08:42:33 10° ENE daylight
29 May - 10:15:54 10° W 10:20:21 46° NNW 10:24:52 10° NE daylight
29 May - 11:59:24 10° WNW 12:03:21 26° N 12:07:20 10° NE daylight
29 May - 13:42:06 10° NW 13:46:28 37° NNE 13:50:50 10° E daylight
29 May - 15:24:14 10° WNW 15:28:55 69° SW 15:33:38 10° SE daylight
29 May - 17:08:31 10° WSW 17:10:28 12° SW 17:12:25 10° SSW daylight
30 May - 07:19:27 10° S 07:22:27 17° SE 07:25:30 10° E daylight
30 May - 08:59:31 10° WSW 09:04:09 89° NNW 09:08:49 10° ENE daylight
30 May - 10:42:37 10° WNW 10:46:46 32° NNW 10:50:58 10° NE daylight
30 May - 12:25:54 10° NW 12:29:56 28° N 12:33:59 10° ENE daylight
30 May - 14:08:09 10° NW 14:12:48 59° NNE 14:17:27 10° ESE daylight
30 May - 15:50:40 10° WNW 15:54:49 31° SW 15:59:00 10° SSE daylight
31 May - 07:43:56 10° SSW 07:48:12 39° SE 07:52:32 10° ENE daylight
31 May - 09:25:53 10° W 09:30:21 49° NNW 09:34:53 10° NE daylight
31 May - 11:09:22 10° WNW 11:13:18 27° N 11:17:17 10° NE daylight
31 May - 12:52:08 10° NW 12:56:26 35° NNE 13:00:46 10° E daylight
31 May - 14:34:15 10° WNW 14:38:56 74° SW 14:43:39 10° SE daylight
31 May - 16:18:11 10° W 16:20:31 14° SW 16:22:52 10° SSW daylight
01 Jun - 06:29:46 10° SSE 06:32:32 16° SE 06:35:18 10° E daylight
01 Jun - 08:09:33 10° SW 08:14:11 85° SSE 08:18:50 10° ENE daylight
01 Jun - 09:52:34 10° W 09:56:45 33° NNW 10:00:58 10° NE daylight
01 Jun - 11:35:55 10° NW 11:39:54 27° N 11:43:55 10° ENE daylight
01 Jun - 13:18:11 10° NW 13:22:47 55° NNE 13:27:25 10° ESE daylight
01 Jun - 15:00:38 10° WNW 15:04:52 34° SW 15:09:07 10° SSE daylight
